User: anonymous   Login
Location: Unspecified
(64.9000°N, 0.0000°E)
Time: 17:37:31
(UTC+00:00)
Language:

Transit 2A Rocket - Orbit

View from above orbital plane
View from above orbital plane
View from above satellite
View from above satellite

Ground track
Ground track

The orbit data is extracted from the following two-line orbital elements,

1    47U 60007C   19169.89408002 -.00000049  00000-0  14181-4 0  9994
2    47  66.6667  49.7308 0231948 211.6370 147.0620 14.42038290 82551
Epoch (UTC): 18 June 2019 21:27:28
Eccentricity: 0.0231948
inclination: 66.6667°
perigee height: 586 km
apogee height: 917 km
right ascension of ascending node: 49.7308°
argument of perigee: 211.6370°
revolutions per day: 14.42038290
mean anomaly at epoch: 147.0620°
orbit number at epoch: 8255

The dashed part of the orbit path shows where the satellite is in the earth's shadow,  

DLR